﻿"Plot Title: 10392157"
"#","Date Time, GMT-03:00","Temp, °C (LGR S/N: 10392157)","Temp, °C (LGR S/N: 10392157)","Coupler Detached (LGR S/N: 10392157)","Coupler Attached (LGR S/N: 10392157)","Host Connected (LGR S/N: 10392157)","Stopped (LGR S/N: 10392157)","End Of File (LGR S/N: 10392157)"
1,09/12/13 04:06:45 PM,25.040,24.847,,,,,
2,09/12/13 04:07:09 PM,,,Logged,,,,
3,09/12/13 04:07:45 PM,25.065,24.919,,,,,
4,09/12/13 04:08:45 PM,25.065,24.944,,,,,
5,09/12/13 04:09:45 PM,25.040,24.944,,,,,
6,09/12/13 04:10:45 PM,25.016,24.944,,,,,
7,09/12/13 04:11:45 PM,25.016,24.944,,,,,
8,09/12/13 04:12:45 PM,24.944,24.944,,,,,
9,09/12/13 04:13:45 PM,24.823,24.968,,,,,
10,09/12/13 04:14:45 PM,24.774,25.016,,,,,
11,09/12/13 04:15:45 PM,24.750,25.016,,,,,
12,09/12/13 04:16:45 PM,24.726,25.040,,,,,
13,09/12/13 04:17:45 PM,24.750,25.065,,,,,
14,09/12/13 04:18:45 PM,24.750,25.065,,,,,
15,09/12/13 04:19:45 PM,24.774,25.065,,,,,
16,09/12/13 04:20:45 PM,24.823,25.065,,,,,
17,09/12/13 04:21:45 PM,24.871,25.040,,,,,
18,09/12/13 04:22:45 PM,24.968,25.065,,,,,
19,09/12/13 04:23:45 PM,25.089,25.040,,,,,
20,09/12/13 04:24:45 PM,25.186,25.040,,,,,
21,09/12/13 04:25:45 PM,25.283,25.040,,,,,
22,09/12/13 04:26:45 PM,25.331,25.040,,,,,
23,09/12/13 04:27:45 PM,25.380,25.065,,,,,
24,09/12/13 04:28:45 PM,25.453,25.089,,,,,
25,09/12/13 04:29:45 PM,25.477,25.065,,,,,
26,09/12/13 04:30:45 PM,25.501,25.089,,,,,
27,09/12/13 04:31:45 PM,25.501,25.089,,,,,
28,09/12/13 04:32:45 PM,25.623,25.065,,,,,
29,09/12/13 04:33:45 PM,25.647,25.065,,,,,
30,09/12/13 04:34:45 PM,25.695,25.065,,,,,
31,09/12/13 04:35:45 PM,27.161,25.258,,,,,
32,09/12/13 04:36:45 PM,26.793,25.380,,,,,
33,09/12/13 04:37:45 PM,26.573,25.428,,,,,
34,09/12/13 04:38:45 PM,26.695,25.477,,,,,
35,09/12/13 04:39:45 PM,27.014,25.477,,,,,
36,09/12/13 04:40:45 PM,27.235,26.426,,,,,
37,09/12/13 04:41:45 PM,27.308,26.842,,,,,
38,09/12/13 04:42:45 PM,27.407,27.136,,,,,
39,09/12/13 04:43:45 PM,27.604,27.259,,,,,
40,09/12/13 04:44:45 PM,27.776,27.284,,,,,
41,09/12/13 04:45:45 PM,27.899,27.382,,,,,
42,09/12/13 04:46:45 PM,27.949,27.579,,,,,
43,09/12/13 04:47:45 PM,27.974,27.801,,,,,
44,09/12/13 04:48:45 PM,27.949,28.072,,,,,
45,09/12/13 04:49:45 PM,27.875,28.245,,,,,
46,09/12/13 04:50:45 PM,27.776,28.295,,,,,
47,09/12/13 04:51:45 PM,27.604,28.147,,,,,
48,09/12/13 04:52:45 PM,27.063,27.604,,,,,
49,09/12/13 04:53:45 PM,25.793,26.378,,,,,
50,09/12/13 04:54:45 PM,24.388,25.016,,,,,
51,09/12/13 04:55:45 PM,22.896,23.569,,,,,
52,09/12/13 04:56:45 PM,21.413,22.130,,,,,
53,09/12/13 04:57:45 PM,20.126,20.817,,,,,
54,09/12/13 04:58:45 PM,18.985,19.698,,,,,
55,09/12/13 04:59:45 PM,18.033,18.818,,,,,
56,09/12/13 05:00:45 PM,17.153,17.962,,,,,
57,09/12/13 05:01:45 PM,16.463,17.368,,,,,
58,09/12/13 05:02:45 PM,15.939,16.915,,,,,
59,09/12/13 05:03:45 PM,15.414,16.463,,,,,
60,09/12/13 05:04:45 PM,14.984,16.034,,,,,
61,09/12/13 05:05:45 PM,14.553,15.605,,,,,
62,09/12/13 05:06:45 PM,14.170,15.175,,,,,
63,09/12/13 05:07:45 PM,13.786,14.768,,,,,
64,09/12/13 05:08:45 PM,13.449,14.385,,,,,
65,09/12/13 05:09:45 PM,13.112,14.026,,,,,
66,09/12/13 05:10:45 PM,12.799,13.642,,,,,
67,09/12/13 05:11:45 PM,12.485,13.305,,,,,
68,09/12/13 05:12:45 PM,12.171,12.968,,,,,
69,09/12/13 05:13:45 PM,11.929,12.678,,,,,
70,09/12/13 05:14:45 PM,11.710,12.437,,,,,
71,09/12/13 05:15:45 PM,11.516,12.195,,,,,
72,09/12/13 05:16:45 PM,11.370,12.025,,,,,
73,09/12/13 05:17:45 PM,11.224,11.856,,,,,
74,09/12/13 05:18:45 PM,11.127,11.734,,,,,
75,09/12/13 05:19:45 PM,11.029,11.637,,,,,
76,09/12/13 05:20:45 PM,10.932,11.565,,,,,
77,09/12/13 05:21:45 PM,10.858,11.467,,,,,
78,09/12/13 05:22:45 PM,10.785,11.394,,,,,
79,09/12/13 05:23:45 PM,10.736,11.297,,,,,
80,09/12/13 05:24:45 PM,10.663,11.224,,,,,
81,09/12/13 05:25:45 PM,10.638,11.200,,,,,
82,09/12/13 05:26:45 PM,10.638,11.200,,,,,
83,09/12/13 05:27:45 PM,10.663,11.200,,,,,
84,09/12/13 05:28:45 PM,10.736,11.248,,,,,
85,09/12/13 05:29:45 PM,10.810,11.321,,,,,
86,09/12/13 05:30:45 PM,10.883,11.370,,,,,
87,09/12/13 05:31:45 PM,10.980,11.419,,,,,
88,09/12/13 05:32:45 PM,11.053,11.516,,,,,
89,09/12/13 05:33:45 PM,11.127,11.589,,,,,
90,09/12/13 05:34:45 PM,11.200,11.662,,,,,
91,09/12/13 05:35:45 PM,11.248,11.734,,,,,
92,09/12/13 05:36:45 PM,11.273,11.759,,,,,
93,09/12/13 05:37:45 PM,11.273,11.807,,,,,
94,09/12/13 05:38:45 PM,11.248,11.759,,,,,
95,09/12/13 05:39:45 PM,11.175,11.686,,,,,
96,09/12/13 05:40:45 PM,11.078,11.565,,,,,
97,09/12/13 05:41:45 PM,10.956,11.419,,,,,
98,09/12/13 05:42:45 PM,10.810,11.273,,,,,
99,09/12/13 05:43:45 PM,10.687,11.151,,,,,
100,09/12/13 05:44:45 PM,10.590,11.053,,,,,
101,09/12/13 05:45:45 PM,10.541,11.005,,,,,
102,09/12/13 05:46:45 PM,10.541,11.005,,,,,
103,09/12/13 05:47:45 PM,10.590,11.053,,,,,
104,09/12/13 05:48:45 PM,10.663,11.127,,,,,
105,09/12/13 05:49:45 PM,10.736,11.175,,,,,
106,09/12/13 05:50:45 PM,10.785,11.224,,,,,
107,09/12/13 05:51:45 PM,10.810,11.273,,,,,
108,09/12/13 05:52:45 PM,10.834,11.273,,,,,
109,09/12/13 05:53:45 PM,10.810,11.273,,,,,
110,09/12/13 05:54:45 PM,10.785,11.248,,,,,
111,09/12/13 05:55:45 PM,10.761,11.224,,,,,
112,09/12/13 05:56:45 PM,10.712,11.175,,,,,
113,09/12/13 05:57:45 PM,10.687,11.127,,,,,
114,09/12/13 05:58:45 PM,10.638,11.127,,,,,
115,09/12/13 05:59:45 PM,10.614,11.078,,,,,
116,09/12/13 06:00:45 PM,10.590,11.029,,,,,
117,09/12/13 06:01:45 PM,10.541,11.005,,,,,
118,09/12/13 06:02:45 PM,10.492,10.956,,,,,
119,09/12/13 06:03:45 PM,10.467,10.932,,,,,
120,09/12/13 06:04:45 PM,10.418,10.883,,,,,
121,09/12/13 06:05:45 PM,10.369,10.858,,,,,
122,09/12/13 06:06:45 PM,10.320,10.810,,,,,
123,09/12/13 06:07:45 PM,10.247,10.736,,,,,
124,09/12/13 06:08:45 PM,10.149,10.663,,,,,
125,09/12/13 06:09:45 PM,10.075,10.590,,,,,
126,09/12/13 06:10:45 PM,9.977,10.492,,,,,
127,09/12/13 06:11:45 PM,9.854,10.394,,,,,
128,09/12/13 06:12:45 PM,9.756,10.247,,,,,
129,09/12/13 06:13:45 PM,9.608,10.149,,,,,
130,09/12/13 06:14:45 PM,9.509,10.026,,,,,
131,09/12/13 06:15:45 PM,9.386,9.928,,,,,
132,09/12/13 06:16:45 PM,9.262,9.805,,,,,
133,09/12/13 06:17:45 PM,9.163,9.731,,,,,
134,09/12/13 06:18:45 PM,9.064,9.657,,,,,
135,09/12/13 06:19:45 PM,8.965,9.558,,,,,
136,09/12/13 06:20:45 PM,8.891,9.509,,,,,
137,09/12/13 06:21:45 PM,8.841,9.460,,,,,
138,09/12/13 06:22:45 PM,8.792,9.410,,,,,
139,09/12/13 06:23:45 PM,8.767,9.410,,,,,
140,09/12/13 06:24:45 PM,8.767,9.410,,,,,
141,09/12/13 06:25:45 PM,8.792,9.435,,,,,
142,09/12/13 06:26:45 PM,8.817,9.460,,,,,
143,09/12/13 06:27:45 PM,8.817,9.460,,,,,
144,09/12/13 06:28:45 PM,8.866,9.509,,,,,
145,09/12/13 06:29:45 PM,8.891,9.509,,,,,
146,09/12/13 06:30:45 PM,8.916,9.534,,,,,
147,09/12/13 06:31:45 PM,8.965,9.558,,,,,
148,09/12/13 06:32:45 PM,9.015,9.608,,,,,
149,09/12/13 06:33:45 PM,9.040,9.632,,,,,
150,09/12/13 06:34:45 PM,9.064,9.657,,,,,
151,09/12/13 06:35:45 PM,9.114,9.682,,,,,
152,09/12/13 06:36:45 PM,9.114,9.706,,,,,
153,09/12/13 06:37:45 PM,9.139,9.706,,,,,
154,09/12/13 06:38:45 PM,9.163,9.731,,,,,
155,09/12/13 06:39:45 PM,9.163,9.731,,,,,
156,09/12/13 06:40:45 PM,9.188,9.756,,,,,
157,09/12/13 06:41:45 PM,9.213,9.780,,,,,
158,09/12/13 06:42:45 PM,9.213,9.805,,,,,
159,09/12/13 06:43:45 PM,9.213,9.805,,,,,
160,09/12/13 06:44:45 PM,9.213,9.805,,,,,
161,09/12/13 06:45:45 PM,9.213,9.780,,,,,
162,09/12/13 06:46:45 PM,9.213,9.756,,,,,
163,09/12/13 06:47:45 PM,9.188,9.756,,,,,
164,09/12/13 06:48:45 PM,9.163,9.731,,,,,
165,09/12/13 06:49:45 PM,9.163,9.731,,,,,
166,09/12/13 06:50:45 PM,9.163,9.731,,,,,
167,09/12/13 06:51:45 PM,9.163,9.731,,,,,
168,09/12/13 06:52:45 PM,9.163,9.731,,,,,
169,09/12/13 06:53:45 PM,9.188,9.756,,,,,
170,09/12/13 06:54:45 PM,9.213,9.756,,,,,
171,09/12/13 06:55:45 PM,9.213,9.780,,,,,
172,09/12/13 06:56:45 PM,9.238,9.780,,,,,
173,09/12/13 06:57:45 PM,9.238,9.780,,,,,
174,09/12/13 06:58:45 PM,9.238,9.756,,,,,
175,09/12/13 06:59:45 PM,9.213,9.756,,,,,
176,09/12/13 07:00:45 PM,9.238,9.756,,,,,
177,09/12/13 07:01:45 PM,9.238,9.756,,,,,
178,09/12/13 07:02:45 PM,9.238,9.780,,,,,
179,09/12/13 07:03:45 PM,9.238,9.780,,,,,
180,09/12/13 07:04:45 PM,9.238,9.756,,,,,
181,09/12/13 07:05:45 PM,9.213,9.756,,,,,
182,09/12/13 07:06:45 PM,9.213,9.756,,,,,
183,09/12/13 07:07:45 PM,9.163,9.706,,,,,
184,09/12/13 07:08:45 PM,9.139,9.682,,,,,
185,09/12/13 07:09:45 PM,9.089,9.657,,,,,
186,09/12/13 07:10:45 PM,9.064,9.608,,,,,
187,09/12/13 07:11:45 PM,9.015,9.558,,,,,
188,09/12/13 07:12:45 PM,8.965,9.509,,,,,
189,09/12/13 07:13:45 PM,8.916,9.460,,,,,
190,09/12/13 07:14:45 PM,8.841,9.386,,,,,
191,09/12/13 07:15:45 PM,8.742,9.287,,,,,
192,09/12/13 07:16:45 PM,8.618,9.163,,,,,
193,09/12/13 07:17:45 PM,8.494,9.015,,,,,
194,09/12/13 07:18:45 PM,8.369,8.891,,,,,
195,09/12/13 07:19:45 PM,8.220,8.767,,,,,
196,09/12/13 07:20:45 PM,8.120,8.618,,,,,
197,09/12/13 07:21:45 PM,7.995,8.519,,,,,
198,09/12/13 07:22:45 PM,7.870,8.419,,,,,
199,09/12/13 07:23:45 PM,7.770,8.319,,,,,
200,09/12/13 07:24:45 PM,7.695,8.270,,,,,
201,09/12/13 07:25:45 PM,7.619,8.195,,,,,
202,09/12/13 07:26:45 PM,7.569,8.145,,,,,
203,09/12/13 07:27:45 PM,7.519,8.095,,,,,
204,09/12/13 07:28:45 PM,7.444,8.045,,,,,
205,09/12/13 07:29:45 PM,7.393,8.020,,,,,
206,09/12/13 07:30:45 PM,7.343,7.970,,,,,
207,09/12/13 07:31:45 PM,7.293,7.945,,,,,
208,09/12/13 07:32:45 PM,7.268,7.895,,,,,
209,09/12/13 07:33:45 PM,7.217,7.870,,,,,
210,09/12/13 07:34:45 PM,7.167,7.820,,,,,
211,09/12/13 07:35:45 PM,7.116,7.770,,,,,
212,09/12/13 07:36:45 PM,7.091,7.745,,,,,
213,09/12/13 07:37:45 PM,7.066,7.720,,,,,
214,09/12/13 07:38:45 PM,7.015,7.695,,,,,
215,09/12/13 07:39:45 PM,7.015,7.670,,,,,
216,09/12/13 07:40:45 PM,6.990,7.670,,,,,
217,09/12/13 07:41:45 PM,6.965,7.645,,,,,
218,09/12/13 07:42:45 PM,6.965,7.645,,,,,
219,09/12/13 07:43:45 PM,6.965,7.645,,,,,
220,09/12/13 07:44:45 PM,6.940,7.645,,,,,
221,09/12/13 07:45:45 PM,6.940,7.645,,,,,
222,09/12/13 07:46:45 PM,6.940,7.645,,,,,
223,09/12/13 07:47:45 PM,6.940,7.645,,,,,
224,09/12/13 07:48:45 PM,6.965,7.670,,,,,
225,09/12/13 07:49:45 PM,6.990,7.670,,,,,
226,09/12/13 07:50:45 PM,7.015,7.720,,,,,
227,09/12/13 07:51:45 PM,7.066,7.720,,,,,
228,09/12/13 07:52:45 PM,7.116,7.770,,,,,
229,09/12/13 07:53:45 PM,7.142,7.795,,,,,
230,09/12/13 07:54:45 PM,7.192,7.845,,,,,
231,09/12/13 07:55:45 PM,7.242,7.870,,,,,
232,09/12/13 07:56:45 PM,7.268,7.920,,,,,
233,09/12/13 07:57:45 PM,7.318,7.970,,,,,
234,09/12/13 07:58:45 PM,7.318,7.995,,,,,
235,09/12/13 07:59:45 PM,7.343,7.995,,,,,
236,09/12/13 08:00:45 PM,7.318,7.970,,,,,
237,09/12/13 08:01:45 PM,7.318,7.945,,,,,
238,09/12/13 08:02:45 PM,7.293,7.920,,,,,
239,09/12/13 08:03:45 PM,7.268,7.920,,,,,
240,09/12/13 08:04:45 PM,7.268,7.920,,,,,
241,09/12/13 08:05:45 PM,7.268,7.920,,,,,
242,09/12/13 08:06:45 PM,7.268,7.920,,,,,
243,09/12/13 08:07:45 PM,7.268,7.945,,,,,
244,09/12/13 08:08:45 PM,7.268,7.945,,,,,
245,09/12/13 08:09:45 PM,7.268,7.970,,,,,
246,09/12/13 08:10:45 PM,7.268,7.970,,,,,
247,09/12/13 08:11:45 PM,7.268,7.970,,,,,
248,09/12/13 08:12:45 PM,7.242,7.945,,,,,
249,09/12/13 08:13:45 PM,7.217,7.920,,,,,
250,09/12/13 08:14:45 PM,7.167,7.870,,,,,
251,09/12/13 08:15:45 PM,7.116,7.820,,,,,
252,09/12/13 08:16:45 PM,7.066,7.770,,,,,
253,09/12/13 08:17:45 PM,6.990,7.695,,,,,
254,09/12/13 08:18:45 PM,6.914,7.619,,,,,
255,09/12/13 08:19:45 PM,6.864,7.569,,,,,
256,09/12/13 08:20:45 PM,6.788,7.494,,,,,
257,09/12/13 08:21:45 PM,6.712,7.419,,,,,
258,09/12/13 08:22:45 PM,6.661,7.368,,,,,
259,09/12/13 08:23:45 PM,6.611,7.318,,,,,
260,09/12/13 08:24:45 PM,6.560,7.268,,,,,
261,09/12/13 08:25:45 PM,6.509,7.217,,,,,
262,09/12/13 08:26:45 PM,6.458,7.217,,,,,
263,09/12/13 08:27:45 PM,6.433,7.167,,,,,
264,09/12/13 08:28:45 PM,6.408,7.167,,,,,
265,09/12/13 08:29:45 PM,6.408,7.167,,,,,
266,09/12/13 08:30:45 PM,6.408,7.142,,,,,
267,09/12/13 08:31:45 PM,6.408,7.142,,,,,
268,09/12/13 08:32:45 PM,6.408,7.167,,,,,
269,09/12/13 08:33:45 PM,6.408,7.167,,,,,
270,09/12/13 08:34:45 PM,6.433,7.167,,,,,
271,09/12/13 08:35:45 PM,6.433,7.167,,,,,
272,09/12/13 08:36:45 PM,6.458,7.192,,,,,
273,09/12/13 08:37:45 PM,6.458,7.192,,,,,
274,09/12/13 08:38:45 PM,6.458,7.192,,,,,
275,09/12/13 08:39:45 PM,6.433,7.192,,,,,
276,09/12/13 08:40:45 PM,6.433,7.167,,,,,
277,09/12/13 08:41:45 PM,6.433,7.167,,,,,
278,09/12/13 08:42:45 PM,6.408,7.167,,,,,
279,09/12/13 08:43:45 PM,6.408,7.142,,,,,
280,09/12/13 08:44:45 PM,6.382,7.116,,,,,
281,09/12/13 08:45:45 PM,6.357,7.116,,,,,
282,09/12/13 08:46:45 PM,6.331,7.066,,,,,
283,09/12/13 08:47:45 PM,6.306,7.066,,,,,
284,09/12/13 08:48:45 PM,6.281,7.041,,,,,
285,09/12/13 08:49:45 PM,6.255,7.015,,,,,
286,09/12/13 08:50:45 PM,6.204,6.965,,,,,
287,09/12/13 08:51:45 PM,6.179,6.965,,,,,
288,09/12/13 08:52:45 PM,6.153,6.914,,,,,
289,09/12/13 08:53:45 PM,6.128,6.889,,,,,
290,09/12/13 08:54:45 PM,6.077,6.839,,,,,
291,09/12/13 08:55:45 PM,6.051,6.813,,,,,
292,09/12/13 08:56:45 PM,6.000,6.763,,,,,
293,09/12/13 08:57:45 PM,5.924,6.712,,,,,
294,09/12/13 08:58:45 PM,5.872,6.661,,,,,
295,09/12/13 08:59:45 PM,5.821,6.611,,,,,
296,09/12/13 09:00:45 PM,5.770,6.585,,,,,
297,09/12/13 09:01:45 PM,5.745,6.535,,,,,
298,09/12/13 09:02:45 PM,5.693,6.484,,,,,
299,09/12/13 09:03:45 PM,5.616,6.458,,,,,
300,09/12/13 09:04:45 PM,5.565,6.408,,,,,
301,09/12/13 09:05:45 PM,5.514,6.357,,,,,
302,09/12/13 09:06:45 PM,5.462,6.306,,,,,
303,09/12/13 09:07:45 PM,5.437,6.255,,,,,
304,09/12/13 09:08:45 PM,5.385,6.230,,,,,
305,09/12/13 09:09:45 PM,5.360,6.179,,,,,
306,09/12/13 09:10:45 PM,5.334,6.153,,,,,
307,09/12/13 09:11:45 PM,5.334,6.153,,,,,
308,09/12/13 09:12:45 PM,5.308,6.153,,,,,
309,09/12/13 09:13:45 PM,5.334,6.153,,,,,
310,09/12/13 09:14:45 PM,5.334,6.153,,,,,
311,09/12/13 09:15:45 PM,5.360,6.179,,,,,
312,09/12/13 09:16:45 PM,5.385,6.204,,,,,
313,09/12/13 09:17:45 PM,5.411,6.204,,,,,
314,09/12/13 09:18:45 PM,5.437,6.230,,,,,
315,09/12/13 09:19:45 PM,5.437,6.255,,,,,
316,09/12/13 09:20:45 PM,5.488,6.281,,,,,
317,09/12/13 09:21:45 PM,5.488,6.306,,,,,
318,09/12/13 09:22:45 PM,5.539,6.331,,,,,
319,09/12/13 09:23:45 PM,5.565,6.357,,,,,
320,09/12/13 09:24:45 PM,5.591,6.408,,,,,
321,09/12/13 09:25:45 PM,5.642,6.408,,,,,
322,09/12/13 09:26:45 PM,5.693,6.458,,,,,
323,09/12/13 09:27:45 PM,5.719,6.509,,,,,
324,09/12/13 09:28:45 PM,5.770,6.535,,,,,
325,09/12/13 09:29:45 PM,5.821,6.585,,,,,
326,09/12/13 09:30:45 PM,5.898,6.611,,,,,
327,09/12/13 09:31:45 PM,5.924,6.661,,,,,
328,09/12/13 09:32:45 PM,5.975,6.712,,,,,
329,09/12/13 09:33:45 PM,6.026,6.763,,,,,
330,09/12/13 09:34:45 PM,6.077,6.813,,,,,
331,09/12/13 09:35:45 PM,6.128,6.839,,,,,
332,09/12/13 09:36:45 PM,6.153,6.889,,,,,
333,09/12/13 09:37:45 PM,6.204,6.914,,,,,
334,09/12/13 09:38:45 PM,6.230,6.940,,,,,
335,09/12/13 09:39:45 PM,6.255,6.965,,,,,
336,09/12/13 09:40:45 PM,6.255,6.965,,,,,
337,09/12/13 09:41:45 PM,6.255,6.965,,,,,
338,09/12/13 09:42:45 PM,6.230,6.914,,,,,
339,09/12/13 09:43:45 PM,6.204,6.914,,,,,
340,09/12/13 09:44:45 PM,6.153,6.864,,,,,
341,09/12/13 09:45:45 PM,6.102,6.813,,,,,
342,09/12/13 09:46:45 PM,6.026,6.763,,,,,
343,09/12/13 09:47:45 PM,5.949,6.687,,,,,
344,09/12/13 09:48:45 PM,5.847,6.611,,,,,
345,09/12/13 09:49:45 PM,5.770,6.535,,,,,
346,09/12/13 09:50:45 PM,5.668,6.458,,,,,
347,09/12/13 09:51:45 PM,5.565,6.357,,,,,
348,09/12/13 09:52:45 PM,5.488,6.306,,,,,
349,09/12/13 09:53:45 PM,5.411,6.230,,,,,
350,09/12/13 09:54:45 PM,5.334,6.179,,,,,
351,09/12/13 09:55:45 PM,5.282,6.102,,,,,
352,09/12/13 09:56:45 PM,5.205,6.051,,,,,
353,09/12/13 09:57:45 PM,5.154,6.000,,,,,
354,09/12/13 09:58:45 PM,5.102,5.949,,,,,
355,09/12/13 09:59:45 PM,5.050,5.898,,,,,
356,09/12/13 10:00:45 PM,4.999,5.847,,,,,
357,09/12/13 10:01:45 PM,4.973,5.796,,,,,
358,09/12/13 10:02:45 PM,4.921,5.745,,,,,
359,09/12/13 10:03:45 PM,4.869,5.693,,,,,
360,09/12/13 10:04:45 PM,4.818,5.642,,,,,
361,09/12/13 10:05:45 PM,4.740,5.591,,,,,
362,09/12/13 10:06:45 PM,4.688,5.514,,,,,
363,09/12/13 10:07:45 PM,4.636,5.462,,,,,
364,09/12/13 10:08:45 PM,4.558,5.411,,,,,
365,09/12/13 10:09:45 PM,4.506,5.360,,,,,
366,09/12/13 10:10:45 PM,4.454,5.308,,,,,
367,09/12/13 10:11:45 PM,4.402,5.257,,,,,
368,09/12/13 10:12:45 PM,4.350,5.231,,,,,
369,09/12/13 10:13:45 PM,4.298,5.179,,,,,
370,09/12/13 10:14:45 PM,4.272,5.154,,,,,
371,09/12/13 10:15:45 PM,4.246,5.128,,,,,
372,09/12/13 10:16:45 PM,4.220,5.102,,,,,
373,09/12/13 10:17:45 PM,4.194,5.076,,,,,
374,09/12/13 10:18:45 PM,4.194,5.076,,,,,
375,09/12/13 10:19:45 PM,4.141,5.024,,,,,
376,09/12/13 10:20:45 PM,4.141,5.024,,,,,
377,09/12/13 10:21:45 PM,4.115,5.024,,,,,
378,09/12/13 10:22:45 PM,4.089,4.999,,,,,
379,09/12/13 10:23:45 PM,4.063,4.973,,,,,
380,09/12/13 10:24:45 PM,4.037,4.947,,,,,
381,09/12/13 10:25:45 PM,4.011,4.921,,,,,
382,09/12/13 10:26:45 PM,3.985,4.895,,,,,
383,09/12/13 10:27:45 PM,3.958,4.869,,,,,
384,09/12/13 10:28:45 PM,3.932,4.844,,,,,
385,09/12/13 10:29:45 PM,3.906,4.818,,,,,
386,09/12/13 10:30:45 PM,3.880,4.792,,,,,
387,09/12/13 10:31:45 PM,3.827,4.766,,,,,
388,09/12/13 10:32:45 PM,3.801,4.740,,,,,
389,09/12/13 10:33:45 PM,3.775,4.714,,,,,
390,09/12/13 10:34:45 PM,3.775,4.688,,,,,
391,09/12/13 10:35:45 PM,3.749,4.662,,,,,
392,09/12/13 10:36:45 PM,3.722,4.662,,,,,
393,09/12/13 10:37:45 PM,3.722,4.636,,,,,
394,09/12/13 10:38:45 PM,3.696,4.610,,,,,
395,09/12/13 10:39:45 PM,3.696,4.610,,,,,
396,09/12/13 10:40:45 PM,3.696,4.610,,,,,
397,09/12/13 10:41:45 PM,3.722,4.636,,,,,
398,09/12/13 10:42:45 PM,3.749,4.662,,,,,
399,09/12/13 10:43:45 PM,3.801,4.714,,,,,
400,09/12/13 10:44:45 PM,3.854,4.766,,,,,
401,09/12/13 10:45:45 PM,3.932,4.818,,,,,
402,09/12/13 10:46:45 PM,3.985,4.869,,,,,
403,09/12/13 10:47:45 PM,4.089,4.947,,,,,
404,09/12/13 10:48:45 PM,4.168,5.024,,,,,
405,09/12/13 10:49:45 PM,4.272,5.102,,,,,
406,09/12/13 10:50:45 PM,4.350,5.179,,,,,
407,09/12/13 10:51:45 PM,4.428,5.231,,,,,
408,09/12/13 10:52:45 PM,4.506,5.308,,,,,
409,09/12/13 10:53:45 PM,4.558,5.385,,,,,
410,09/12/13 10:54:45 PM,4.610,5.411,,,,,
411,09/12/13 10:55:45 PM,4.662,5.437,,,,,
412,09/12/13 10:56:45 PM,4.688,5.488,,,,,
413,09/12/13 10:57:45 PM,4.688,5.488,,,,,
414,09/12/13 10:58:45 PM,4.688,5.488,,,,,
415,09/12/13 10:59:45 PM,4.688,5.488,,,,,
416,09/12/13 11:00:45 PM,4.662,5.462,,,,,
417,09/12/13 11:01:45 PM,4.662,5.437,,,,,
418,09/12/13 11:02:45 PM,4.610,5.411,,,,,
419,09/12/13 11:03:45 PM,4.610,5.411,,,,,
420,09/12/13 11:04:45 PM,4.584,5.385,,,,,
421,09/12/13 11:05:45 PM,4.558,5.360,,,,,
422,09/12/13 11:06:45 PM,4.506,5.334,,,,,
423,09/12/13 11:07:45 PM,4.480,5.282,,,,,
424,09/12/13 11:08:45 PM,4.454,5.257,,,,,
425,09/12/13 11:09:45 PM,4.402,5.205,,,,,
426,09/12/13 11:10:45 PM,4.350,5.154,,,,,
427,09/12/13 11:11:45 PM,4.298,5.102,,,,,
428,09/12/13 11:12:45 PM,4.246,5.050,,,,,
429,09/12/13 11:13:45 PM,4.194,4.999,,,,,
430,09/12/13 11:14:45 PM,4.168,4.973,,,,,
431,09/12/13 11:15:45 PM,4.141,4.921,,,,,
432,09/12/13 11:16:45 PM,4.089,4.895,,,,,
433,09/12/13 11:17:45 PM,4.089,4.869,,,,,
434,09/12/13 11:18:45 PM,4.063,4.844,,,,,
435,09/12/13 11:19:45 PM,4.063,4.844,,,,,
436,09/12/13 11:20:45 PM,4.037,4.818,,,,,
437,09/12/13 11:21:45 PM,4.037,4.818,,,,,
438,09/12/13 11:22:45 PM,4.037,4.818,,,,,
439,09/12/13 11:23:45 PM,4.063,4.844,,,,,
440,09/12/13 11:24:45 PM,4.063,4.844,,,,,
441,09/12/13 11:25:45 PM,4.063,4.844,,,,,
442,09/12/13 11:26:45 PM,4.063,4.844,,,,,
443,09/12/13 11:27:45 PM,4.063,4.869,,,,,
444,09/12/13 11:28:45 PM,4.063,4.869,,,,,
445,09/12/13 11:29:45 PM,4.063,4.869,,,,,
446,09/12/13 11:30:45 PM,4.063,4.844,,,,,
447,09/12/13 11:31:45 PM,4.063,4.844,,,,,
448,09/12/13 11:32:45 PM,4.037,4.818,,,,,
449,09/12/13 11:33:45 PM,4.037,4.818,,,,,
450,09/12/13 11:34:45 PM,4.011,4.792,,,,,
451,09/12/13 11:35:45 PM,3.985,4.766,,,,,
452,09/12/13 11:36:45 PM,3.958,4.740,,,,,
453,09/12/13 11:37:45 PM,3.932,4.714,,,,,
454,09/12/13 11:38:45 PM,3.906,4.662,,,,,
455,09/12/13 11:39:45 PM,3.880,4.662,,,,,
456,09/12/13 11:40:45 PM,3.854,4.610,,,,,
457,09/12/13 11:41:45 PM,3.827,4.610,,,,,
458,09/12/13 11:42:45 PM,3.827,4.584,,,,,
459,09/12/13 11:43:45 PM,3.827,4.584,,,,,
460,09/12/13 11:44:45 PM,3.827,4.584,,,,,
461,09/12/13 11:45:45 PM,3.827,4.610,,,,,
462,09/12/13 11:46:45 PM,3.827,4.610,,,,,
463,09/12/13 11:47:45 PM,3.854,4.636,,,,,
464,09/12/13 11:48:45 PM,3.880,4.662,,,,,
465,09/12/13 11:49:45 PM,3.932,4.714,,,,,
466,09/12/13 11:50:45 PM,3.958,4.740,,,,,
467,09/12/13 11:51:45 PM,3.985,4.766,,,,,
468,09/12/13 11:52:45 PM,4.037,4.818,,,,,
469,09/12/13 11:53:45 PM,4.063,4.844,,,,,
470,09/12/13 11:54:45 PM,4.089,4.869,,,,,
471,09/12/13 11:55:45 PM,4.115,4.895,,,,,
472,09/12/13 11:56:45 PM,4.141,4.921,,,,,
473,09/12/13 11:57:45 PM,4.141,4.895,,,,,
474,09/12/13 11:58:45 PM,4.141,4.869,,,,,
475,09/12/13 11:59:45 PM,4.089,4.869,,,,,
476,09/13/13 12:00:45 AM,4.063,4.818,,,,,
477,09/13/13 12:01:45 AM,4.037,4.766,,,,,
478,09/13/13 12:02:45 AM,3.985,4.714,,,,,
479,09/13/13 12:03:45 AM,3.932,4.688,,,,,
480,09/13/13 12:04:45 AM,3.880,4.662,,,,,
481,09/13/13 12:05:45 AM,3.827,4.610,,,,,
482,09/13/13 12:06:45 AM,3.775,4.558,,,,,
483,09/13/13 12:07:45 AM,3.749,4.532,,,,,
484,09/13/13 12:08:45 AM,3.722,4.506,,,,,
485,09/13/13 12:09:45 AM,3.670,4.454,,,,,
486,09/13/13 12:10:45 AM,3.617,4.428,,,,,
487,09/13/13 12:11:45 AM,3.564,4.376,,,,,
488,09/13/13 12:12:45 AM,3.538,4.350,,,,,
489,09/13/13 12:13:45 AM,3.485,4.298,,,,,
490,09/13/13 12:14:45 AM,3.433,4.246,,,,,
491,09/13/13 12:15:45 AM,3.406,4.220,,,,,
492,09/13/13 12:16:45 AM,3.354,4.168,,,,,
493,09/13/13 12:17:45 AM,3.301,4.141,,,,,
494,09/13/13 12:18:45 AM,3.274,4.089,,,,,
495,09/13/13 12:19:45 AM,3.248,4.063,,,,,
496,09/13/13 12:20:45 AM,3.195,4.037,,,,,
497,09/13/13 12:21:45 AM,3.142,3.985,,,,,
498,09/13/13 12:22:45 AM,3.142,3.932,,,,,
499,09/13/13 12:23:45 AM,3.089,3.880,,,,,
500,09/13/13 12:24:45 AM,3.036,3.854,,,,,
501,09/13/13 12:25:45 AM,2.983,3.801,,,,,
502,09/13/13 12:26:45 AM,2.930,3.775,,,,,
503,09/13/13 12:27:45 AM,2.903,3.722,,,,,
504,09/13/13 12:28:45 AM,2.850,3.696,,,,,
505,09/13/13 12:29:45 AM,2.823,3.670,,,,,
506,09/13/13 12:30:45 AM,2.770,3.617,,,,,
507,09/13/13 12:31:45 AM,2.744,3.591,,,,,
508,09/13/13 12:32:45 AM,2.717,3.564,,,,,
509,09/13/13 12:33:45 AM,2.664,3.538,,,,,
510,09/13/13 12:34:45 AM,2.664,3.512,,,,,
511,09/13/13 12:35:45 AM,2.637,3.485,,,,,
512,09/13/13 12:36:45 AM,2.610,3.459,,,,,
513,09/13/13 12:37:45 AM,2.610,3.459,,,,,
514,09/13/13 12:38:45 AM,2.584,3.433,,,,,
515,09/13/13 12:39:45 AM,2.557,3.433,,,,,
516,09/13/13 12:40:45 AM,2.557,3.406,,,,,
517,09/13/13 12:41:45 AM,2.557,3.406,,,,,
518,09/13/13 12:42:45 AM,2.530,3.380,,,,,
519,09/13/13 12:43:45 AM,2.503,3.354,,,,,
520,09/13/13 12:44:45 AM,2.503,3.354,,,,,
521,09/13/13 12:45:45 AM,2.503,3.354,,,,,
522,09/13/13 12:46:45 AM,2.477,3.327,,,,,
523,09/13/13 12:47:45 AM,2.450,3.301,,,,,
524,09/13/13 12:48:45 AM,2.450,3.301,,,,,
525,09/13/13 12:49:45 AM,2.423,3.274,,,,,
526,09/13/13 12:50:45 AM,2.396,3.248,,,,,
527,09/13/13 12:51:45 AM,2.396,3.248,,,,,
528,09/13/13 12:52:45 AM,2.396,3.248,,,,,
529,09/13/13 12:53:45 AM,2.370,3.221,,,,,
530,09/13/13 12:54:45 AM,2.370,3.221,,,,,
531,09/13/13 12:55:45 AM,2.370,3.195,,,,,
532,09/13/13 12:56:45 AM,2.370,3.195,,,,,
533,09/13/13 12:57:45 AM,2.343,3.195,,,,,
534,09/13/13 12:58:45 AM,2.343,3.195,,,,,
535,09/13/13 12:59:45 AM,2.343,3.195,,,,,
536,09/13/13 01:00:45 AM,2.343,3.168,,,,,
537,09/13/13 01:01:45 AM,2.316,3.142,,,,,
538,09/13/13 01:02:45 AM,2.289,3.142,,,,,
539,09/13/13 01:03:45 AM,2.289,3.116,,,,,
540,09/13/13 01:04:45 AM,2.289,3.089,,,,,
541,09/13/13 01:05:45 AM,2.262,3.089,,,,,
542,09/13/13 01:06:45 AM,2.262,3.089,,,,,
543,09/13/13 01:07:45 AM,2.236,3.089,,,,,
544,09/13/13 01:08:45 AM,2.236,3.063,,,,,
545,09/13/13 01:09:45 AM,2.236,3.063,,,,,
546,09/13/13 01:10:45 AM,2.209,3.063,,,,,
547,09/13/13 01:11:45 AM,2.209,3.063,,,,,
548,09/13/13 01:12:45 AM,2.209,3.036,,,,,